Other Public Products
Issued by NWS Charleston, SC

Current Version | Previous Version | Graphics & Text | Print | Product List | Glossary On
Versions: 1 2 3 4 5 6 7 8 9 10 11 12 13 14 15 16 17 18 19 20 21 22 23 24 25 26 27 28 29 30 31 32 33 34 35 36 37 38 39 40 41 42 43 44 45 46 47 48 49 50
000 FPUS82 KCHS 231527 OPUCHS TEST...KCHS/KSAV Gateway Observations...TEST National Weather Service Charleston SC 1100 AM EDT MON APR 23 2018 NOTE: "fair" indicates few or no clouds below 12,000 feet with no significant weather and/or obstructions to visibility. SCZ050-WAZ558-NCZ071-TXZ119-213-PAZ071-DCZ001-FLZ074-172-MI076- NYZ176-178-MAZ016-IL014-TNZ027-NJZ106-GAZ044-MD014-231600- ...Gateway Observations for Charleston International... CITY SKY/WX TMP DP RH WIND PRES REMARKS Chas Airport CLOUDY 66 62 87 E16G26 30.13F Seattle MOSUNNY 47 39 74 NE6 30.36R Charlotte LGT RAIN 57 52 83 E16G28 30.23S Dallas DFW MOSUNNY 61 51 70 N12 30.09R Dallas Love PTSUNNY 62 50 64 N13G20 30.10S Philladelphia FAIR 63 36 36 VRB3 30.46F Wash National CLOUDY 63 44 50 CALM 30.43F Baltimore PTSUNNY 61 46 57 E7 30.43S Miami PTSUNNY 80 74 81 SE10 30.06S Detroit PTSUNNY 60 37 42 E10 30.25F Newark FAIR 59 30 33 E7 30.48S Laguardia FAIR 56 27 32 NE13 30.49S J F K FAIR 57 30 35 E13 30.50S Boston Logan FAIR 54 21 27 SE10 30.51S Ft. Lauderdale PTSUNNY 80 75 84 SE14 30.05S Chicago O`Hare CLOUDY 51 28 41 NE14 30.19F Chicago Midway CLOUDY 53 30 41 NE12 30.19F Houston Bush FAIR 67 51 56 NW9 30.09S Houston Hobby FAIR 68 50 52 NW10 30.09R Nashville PTSUNNY 62 59 90 SE9 29.94F Atlanta HVY RAIN 61 61 100 E13 29.99F FOG $$ GAZ044-118-TXZ119-213-NCZ071-DCZ001-MDZ014-506-PAZ021-071-NJZ106- NYZ176-178-MAZ106-OHZ011-021-055-MIZ076-KYZ091-ILZ014-INZ047- MNZ060-ONZ431-231600- ...Gateway Observations for Savannah International... CITY SKY/WX TMP DP RH WIND PRES REMARKS Savannah Arpt HVY RAIN 67 66 97 SW12 30.00F FOG Atlanta HVY RAIN 61 61 100 E13 29.99F FOG Charlotte LGT RAIN 57 52 83 E16G28 30.23S Dallas DFW MOSUNNY 61 51 70 N12 30.09R Houston Bush FAIR 67 51 56 NW9 30.09S Wash National CLOUDY 63 44 50 CALM 30.43F Wash Dulles FAIR 62 45 53 SE8 30.42S Baltimore PTSUNNY 61 46 57 E7 30.43S Philadelphia FAIR 63 36 36 VRB3 30.46F Newark FAIR 59 30 33 E7 30.48S Laguardia FAIR 56 27 32 NE13 30.49S J F K FAIR 57 30 35 E13 30.50S Boston FAIR 54 21 27 SE10 30.51S Pittsburg PTSUNNY 63 40 42 SE10 30.28F Akron PTSUNNY 65 42 43 SE14 30.25F Cleveland PTSUNNY 68 42 38 SE9 30.26F Cincinnati RAIN 54 49 83 E9 30.12R Columbus FAIR 65 44 47 SE16G23 30.16F Detroit PTSUNNY 60 37 42 E10 30.25F Chicago O`Hare CLOUDY 51 28 41 NE14 30.19F Minneapolis FAIR 57 33 40 SW3 30.24F Indianapolis LGT RAIN 54 45 71 E13 30.10F Toronto Canada MOSUNNY 57 21 24 E9 30.38F $$

USA.gov is the U.S. government's official web portal to all federal, state and local government web resources and services.